074  
ASUS46 KSEW 260710  
RWRWA  
 
WASHINGTON REGIONAL WEATHER ROUNDUP  
NATIONAL WEATHER SERVICE SEATTLE WA  
1100 PM PST SUN FEB 25 2024  
 
NOTE:"FAIR" INDICATES FEW OR NO CLOUDS BELOW 12,000 FEET WITH NO  
SIGNIFICANT WEATHER AND/OR S TO VISIBILITY
.  
 
WAZ507-509-555>559-260800-  
SEATTLE, TACOMA, EVERETT, AND VICINITY  
 
CITY SKY/WX TMP DP RH WIND PRES REMARKS
 
EVERETT MOCLDY 42 23 46 VRB3 29.73S TC 6  
BOEING FIELD CLOUDY 38 34 85 E9 29.76S TC 3  
RENTON CLOUDY 40 34 79 N6 29.77R TC 4  
SEATAC AIRPORT CLOUDY 39 32 76 E7 29.75S TC 4  
JBLM-MCCHORD CLOUDY 41 31 69 SW17G24 29.75S TC 5  
PUYALLUP N/A 39 36 87 SW8G15 29.77S TC 4  
BREMERTON MOCLDY 38 28 67 SW3 29.74R TC 3  
JBLM-FT LEWIS CLOUDY 41 30 66 S14G23 29.75S TC 5  
TACOMA NARROWS MOCLDY 40 31 70 VRB7G21 29.74R TC 4  

 
 
WAZ001-503-506-510-514-515-260800-  
NORTH INTERIOR  
 
CITY SKY/WX TMP DP RH WIND PRES REMARKS
 
BELLINGHAM PTCLDY 34 32 92 S3 29.71F TC 1  
FRIDAY HARBOR PTCLDY 41 30 65 MISG 29.74S TC 5  
EASTSOUND MOCLDY 39 30 70 S8 29.71S TC 4  
PORT ANGELES PTCLDY 41 25 53 W16G24 29.73F TC 5  
EDIZ HOOK NOT AVBL  
PORT TOWNSEND PTCLDY 39 28 65 W5 29.73S TC 4  
NAS WHIDBEY MOCLDY 41 33 73 W21G31 29.73F TC 5  
ARLINGTON MOCLDY 40 30 67 NW9G22 29.75S TC 4  
BURLINGTON CLOUDY 39 37 93 CALM 29.74S TC 4  

 
 
WAZ020-022-039-040-504-511-512-260800-  
SOUTHWEST INTERIOR  
 
CITY SKY/WX TMP DP RH WIND PRES REMARKS
 
SHELTON MOCLDY 37 32 82 W9 29.76S TC 3  
OLYMPIA CLOUDY 41 30 65 VRB6 29.80S TC 5  
CHEHALIS CLOUDY 41 37 87 CALM 29.82S TC 5  
KELSO CLOUDY 42 37 82 W5 29.85S TC 6  
VANCOUVER LGT RAIN 44 40 85 NW6 29.85S TC 7  
SCAPPOOSE, OR CLOUDY 44 38 79 NW5 29.83S TC 7  
PORTLAND, OR LGT RAIN 44 40 85 VRB6 29.84R TC 7  

 
 
WAZ021-516-517-260800-  
WASHINGTON COAST  
 
CITY SKY/WX TMP DP RH WIND PRES REMARKS
 
FORKS MOCLDY 43 32 65 W12G20 29.77F TC 6  
HOQUIAM MOCLDY 42 34 73 W17G25 29.81F TC 6  
ASTORIA, OR CLOUDY 44 36 73 W8 29.84F TC 7  

 
 
WAZ019-023-024-040-567>569-260800-  
CASCADE MOUNTAINS AND COLUMBIA GORGE  
 
CITY SKY/WX TMP DP RH WIND PRES REMARKS
 
STAMPEDE PASS CLOUDY 25 22 88 W10G26 29.57F WCI 15 TC -4  
TROUTDALE, OR LGT RAIN 45 40 82 VRB6 29.84R TC 7  
HOOD RIVER, OR RAIN 43 39 87 W8 29.72R TC 6  
THE DALLES, OR LGT RAIN 47 43 86 NW7 29.71R TC 8  

 
 
WAZ026-027-041>044-520-521-260800-  
EAST SLOPES  
 
CITY SKY/WX TMP DP RH WIND PRES REMARKS
 
OMAK CLEAR 40 26 57 VRB3 29.49R TC 4  
WENATCHEE PTCLDY 37 31 78 NW12 29.54S TC 3  
ELLENSBURG CLOUDY 38 28 67 NW23G36 29.60R TC 3  
YAKIMA CLOUDY 46 32 58 NW10 29.60S TC 8  
SUNNYSIDE ARPT CLOUDY 50 36 59 SW18G25 29.62S TC 10  
YAKIMA TC NOT AVBL  

 
 
WAZ028-034-035-260800-  
COLUMBIA BASIN  
 
CITY SKY/WX TMP DP RH WIND PRES REMARKS
 
EPHRATA MOCLDY 43 27 53 SW12 29.55S TC 6  
MOSES LAKE CLOUDY 45 33 63 SW13 29.56F TC 7  
PASCO CLOUDY 53 38 56 SW24G35 29.63F TC 12  
RICHLAND ARPT CLOUDY 53 39 60 SW17G29 29.63S TC 12  
HERMISTON, OR LGT RAIN 51 40 65 W13 29.66S TC 11  

 
 
WAZ036>038-260800-  
NORTHEAST WASHINGTON  
 
CITY SKY/WX TMP DP RH WIND PRES REMARKS
 
SPOKANE GEIGER CLOUDY 42 34 73 SW31G45 29.47F TC 6  
SPOKANE FELTS CLOUDY 46 34 62 SW23G41 29.48F TC 8  
FAIRCHILD AFB PTCLDY 41 35 78 SW26G39 29.46F TC 5  
COEURDALENE,ID CLOUDY 43 34 70 SW16G26 29.48S TC 6  
DEER PARK LGT RAIN 42 35 76 SW17G24 29.46S TC 6  

 
 
WAZ029>033-260800-  
SOUTHEAST WASHINGTON  
 
CITY SKY/WX TMP DP RH WIND PRES REMARKS
 
PULLMAN LGT RAIN 42 36 79 W18G37 29.57F TC 6  
LEWISTON, ID LGT RAIN 48 39 71 W12 29.58F TC 9  
WALLA WALLA LGT RAIN 46 41 82 SW6 29.65S TC 8  
PENDLETON, OR LGT RAIN 47 40 76 W14 29.65F TC 8  

 
 
 
CLICK HERE TO GO TO PREVIOUS BULLETINS.

The Nexlab WA Page Main Text Page